WJ4X-13 Weather Reports


time (UTC)temp
F
wind
direction
speed
knots
gust
knots
rain 1hr
in
rain 24hr
in
rain mn
in
humidity
%
barometer
mb
20260505184535 79 360 0.0 0.0 0.00 0.00 0.00 49 1016.7
20260505183033 79 360 0.0 0.0 0.00 0.00 0.00 49 1016.9
20260505181536 78 360 0.0 0.0 0.00 0.00 0.00 46 1017.2
20260505180039 78 360 0.0 0.0 0.00 0.00 0.00 47 1017.5
20260505174532 78 360 0.0 0.0 0.00 0.00 0.00 46 1017.7
20260505173029 78 360 0.0 0.0 0.00 0.00 0.00 46 1018.0
20260505171525 77 360 0.0 0.0 0.00 0.00 0.00 43 1017.7
20260505170026 77 360 0.0 0.0 0.00 0.00 0.00 52 1017.6
20260505164521 77 360 0.0 0.0 0.00 0.00 0.00 45 1017.8
20260505163023 76 360 0.0 0.0 0.00 0.00 0.00 49 1018.1
20260505161519 75 360 0.0 0.0 0.00 0.00 0.00 51 1018.3
20260505153012 73 360 0.0 0.0 0.00 0.00 0.00 66 1018.4
20260505151513 72 360 0.0 0.0 0.00 0.00 0.00 64 1018.7
20260505124542 58 360 0.0 0.0 0.00 0.00 0.00 94 1018.1
20260505123030 55 360 0.0 0.0 0.00 0.00 0.00 96 1018.2
20260505121541 53 360 0.0 0.0 0.00 0.00 0.00 96 1018.2
20260505120026 52 360 0.0 0.0 0.00 0.00 0.00 96 1017.9
20260505114523 51 360 0.0 0.0 0.00 0.00 0.00 96 1017.7
20260505113023 50 360 0.0 0.0 0.00 0.00 0.00 97 1017.6
20260505111531 48 360 0.0 0.0 0.00 0.00 0.00 97 1017.6
20260505101516 48 360 0.0 0.0 0.00 0.00 0.00 96 1017.4
20260505100026 48 360 0.0 0.0 0.00 0.00 0.00 96 1017.4
20260505094515 48 360 0.0 0.0 0.00 0.00 0.00 95 1017.5
20260505093024 49 360 0.0 0.0 0.00 0.00 0.00 96 1017.3
20260505091516 49 360 0.0 0.0 0.00 0.00 0.00 96 1017.2
20260505090010 48 360 0.0 0.0 0.00 0.00 0.00 94 1017.1
20260505084510 48 360 0.0 0.0 0.00 0.00 0.00 95 1017.2
20260505083008 49 360 0.0 0.0 0.00 0.00 0.00 94 1017.1
20260505081512 49 360 0.0 0.0 0.00 0.00 0.00 94 1017.1
20260505080007 49 360 0.0 0.0 0.00 0.00 0.00 94 1017.1
20260505074507 49 360 0.0 0.0 0.00 0.00 0.00 93 1017.1
20260505073005 49 360 0.0 0.0 0.00 0.00 0.00 93 1017.0
20260505071504 49 360 0.0 0.0 0.00 0.00 0.00 93 1016.9
20260505070002 50 360 0.0 0.0 0.00 0.00 0.00 92 1016.9
20260505064610 50 360 0.0 0.0 0.00 0.00 0.00 92 1016.9
20260505063059 50 360 0.0 0.0 0.00 0.00 0.00 91 1016.9
20260505061557 50 360 0.0 0.0 0.00 0.00 0.00 92 1016.9
20260505060057 50 360 0.0 0.0 0.00 0.00 0.00 91 1016.9
20260505054619 50 360 0.0 0.0 0.00 0.00 0.00 91 1016.9
20260505053054 51 360 0.0 0.0 0.00 0.00 0.00 91 1017.0
20260505051552 51 360 0.0 0.0 0.00 0.00 0.00 90 1017.0
20260505041549 53 360 0.0 0.0 0.00 0.00 0.00 87 1017.0
20260505040043 54 360 0.0 0.0 0.00 0.00 0.00 86 1017.1
20260505034538 54 360 0.0 0.0 0.00 0.00 0.00 83 1017.2
20260505033037 55 360 0.0 0.0 0.00 0.00 0.00 82 1017.3
20260505031541 56 360 0.0 0.0 0.00 0.00 0.00 81 1017.2
20260505030053 56 360 0.0 0.0 0.00 0.00 0.00 79 1017.1
20260505024536 57 360 0.0 0.0 0.00 0.00 0.00 79 1017.1
20260505023035 58 360 0.0 0.0 0.00 0.00 0.00 78 1017.0
20260505021542 58 360 0.0 0.0 0.00 0.00 0.00 79 1017.0
20260505020048 59 360 0.0 0.0 0.00 0.00 0.00 76 1017.0
20260505014532 60 360 0.0 0.0 0.00 0.00 0.00 75 1016.9
20260505013031 61 360 0.0 0.0 0.00 0.00 0.00 75 1016.6
20260505011533 61 360 0.0 0.0 0.00 0.00 0.00 72 1016.6
20260505010037 63 360 0.0 0.0 0.00 0.00 0.00 68 1016.4
20260505004531 64 360 0.0 0.0 0.00 0.00 0.00 64 1016.3
20260505003031 65 360 0.0 0.0 0.00 0.00 0.00 63 1016.2
20260505001529 67 360 0.0 0.0 0.00 0.00 0.00 60 1016.0
20260505000031 68 360 0.0 0.0 0.00 0.00 0.00 54 1015.9
20260504234528 70 360 0.0 0.0 0.00 0.00 0.00 55 1015.7
20260504233027 70 360 0.0 0.0 0.00 0.00 0.00 54 1015.6
20260504231532 71 360 0.0 0.0 0.00 0.00 0.00 53 1015.5
20260504230026 73 360 0.0 0.0 0.00 0.00 0.00 50 1015.6
20260504224530 73 360 0.0 0.0 0.00 0.00 0.00 46 1015.6
20260504223025 75 360 0.0 0.0 0.00 0.00 0.00 50 1015.8
20260504221525 76 360 0.0 0.0 0.00 0.00 0.00 46 1015.8
20260504220022 76 360 0.0 0.0 0.00 0.00 0.00 45 1015.8
20260504214534 76 360 0.0 0.0 0.00 0.00 0.00 51 1015.8
20260504213023 76 360 0.0 0.0 0.00 0.00 0.00 47 1015.9
20260504211521 77 360 0.0 0.0 0.00 0.00 0.00 44 1015.8
20260504210020 77 360 0.0 0.0 0.00 0.00 0.00 44 1015.8
20260504204515 78 360 0.0 0.0 0.00 0.00 0.00 38 1016.0
20260504203018 78 360 0.0 0.0 0.00 0.00 0.00 39 1016.0
20260504201512 78 360 0.0 0.0 0.00 0.00 0.00 44 1016.2
20260504200015 78 360 0.0 0.0 0.00 0.00 0.00 39 1016.3
20260504194510 78 360 0.0 0.0 0.00 0.00 0.00 40 1016.5
20260504193006 77 360 0.0 0.0 0.00 0.00 0.00 42 1016.7
20260504191503 76 360 0.0 0.0 0.00 0.00 0.00 41 1017.0
20260504190100 76 360 0.0 0.0 0.00 0.00 0.00 50 1017.2